Weather History for Roatan, Honduras

Change the Weather History Date:

Tuesday, January 21, 2014

  Actual Average Record
Temperature  
Mean Temperature 74 °F -  
Max Temperature 83 °F 82 °F 87 °F (1998)
Min Temperature 65 °F 73 °F 65 °F (2014)
Cooling Degree Days 9    
Growing Degree Days 24 (Base 50)    
Moisture  
Dew Point 67 °F    
Average Humidity 69    
Maximum Humidity 89    
Minimum Humidity 54    
Precipitation  
Precipitation 0.00 in - - ()
Sea Level Pressure  
Sea Level Pressure 30.02 in    
Wind  
Wind Speed 4 mph ()    
Max Wind Speed 9 mph    
Max Gust Speed -    
Visibility 6.4 miles    
Events      
Averages and records for this station are not official NWS values.
T = Trace of Precipitation, MM = Missing Value Source: Averaged Metar Reports

Daily Weather History Graph

Daily Weather History Graph

Search for Another Location

Airport:

Trip Planner

Search our weather history database for the weather conditions in past years. The results will help you decide how hot, cold, wet, or windy it might be!

Date:

Astronomy

Jan. 21, 2014 Rise Set
Actual Time 6:17 AM CST 5:37 PM CST
Civil Twilight 5:55 AM CST 6:00 PM CST
Nautical Twilight 5:28 AM CST 6:26 PM CST
Astronomical Twilight 5:02 AM CST 6:52 PM CST
Moon 10:12 PM CST (1/21) 9:39 AM CST (1/21)
Length of Visible Light 12h 04m
Length of Day
11h 19m
Waning Gibbous, 74% of the Moon is Illuminated
Jan 21
Waning Gibbous
Jan 23
Last Quarter
Jan 30
New
Feb 6
First Quarter
Feb 14
Full

Hourly Weather History & Observations

Time (CST) Temp. Heat Index Dew Point Humidity Pressure Visibility Wind Dir Wind Speed Gust Speed Precip Events Conditions
6:00 AM 70 °F - 66 °F 85% 30.01 in 9 mi North 3.5 mph - -   Haze
6:00 AM 69.8 °F - 66.2 °F 88% 30.01 in 6.2 mi North 3.5 mph - N/A   Overcast
7:00 AM 71.6 °F - 68.0 °F 88% 30.01 in 6.2 mi NNW 2.3 mph - N/A   Mostly Cloudy
8:00 AM 75.2 °F - 71.6 °F 89% 30.04 in 6.2 mi Calm Calm - N/A   Mostly Cloudy
9:00 AM 77 °F - 68 °F 67% 30.06 in 9 mi Calm Calm - -   Haze
9:00 AM 77.0 °F - 68.0 °F 74% 30.06 in 6.2 mi Calm Calm - N/A   Mostly Cloudy
10:00 AM 80.6 °F 83.2 °F 68.0 °F 65% 30.06 in 6.2 mi NNE 6.9 mph - N/A   Mostly Cloudy
11:00 AM 80.6 °F 83.2 °F 68.0 °F 65% 30.04 in 6.2 mi North 4.6 mph - N/A   Overcast
12:00 PM 81 °F - 67 °F 54% 30.03 in 7 mi NNE 6.9 mph - -   Haze
12:00 PM 80.6 °F 83.2 °F 68.0 °F 65% 30.01 in 6.2 mi NNE 6.9 mph - N/A   Mostly Cloudy
1:00 PM 82.4 °F 85.4 °F 68.0 °F 62% 30.01 in 6.2 mi North 5.8 mph - N/A   Mostly Cloudy
2:00 PM 78.8 °F - 68.0 °F 69% 29.98 in 6.2 mi North 5.8 mph - N/A   Mostly Cloudy
3:00 PM 81 °F - 67 °F 54% 29.98 in 5 mi NNW 9.2 mph - -   Partly Cloudy
3:00 PM 80.6 °F 83.2 °F 68.0 °F 65% 29.98 in 5.0 mi NNW 9.2 mph - N/A   Mostly Cloudy
4:00 PM 78.8 °F - 68.0 °F 69% 29.98 in 6.2 mi NNW 8.1 mph - N/A   Mostly Cloudy
5:00 PM 78.8 °F - 66.2 °F 65% 30.01 in 6.2 mi North 8.1 mph - N/A   Mostly Cloudy
6:00 PM 78 °F - 65 °F 55% 30.03 in 6 mi North 9.2 mph - -   Haze
6:00 PM 77.0 °F - 64.4 °F 65% 30.01 in 6.2 mi North 9.2 mph - N/A   Mostly Cloudy
7:00 PM 77.0 °F - 64.4 °F 65% 30.04 in 6.2 mi North 6.9 mph - N/A   Mostly Cloudy
8:00 PM 78.8 °F - 64.4 °F 61% 30.06 in 6.2 mi NNE 4.6 mph - N/A   Scattered Clouds